[[{"header":{"parameterUnit":"m.s-1","parameterCategory":2,"la1":30.2991,"la2":30.254,"lo1":-89.0895,"lo2":-89.0444,"dy":0.0017,"dx":0.0017,"nx":28,"ny":28,"refTime":"2024-02-23T09:00:00:Z","depth":"0","parameterNumber":2,"parameterNumberName":"U-component_of_CURRENTS"},"data":[0,0,0,0,0,0,0,0,0,0,0,0,0,0,0,0,0,0,0,0,0,0,0,0,0,0,0,0,0,0,0,0,0,0,0,0,0,0,0,0,0,0,0,0,0,0,0,0,0,0,0,0,0,0,0,0,0,0,0.3009,0.301,0,0.3052,0.3052,0.3053,0.3058,0.3058,0.3058,0.3058,0.3129,0.3131,0.3133,0,0,0,0,0,0,0,0,0,0,0,0,0,0.2971,0.2972,0.3009,0.301,0.3011,0.3052,0.3052,0.3053,0.3059,0.3058,0.3058,0.3058,0.3128,0.313,0.3133,0,0,0,0,0,0,0,0,0,0,0,0,0,0.2997,0.2972,0.3009,0.3019,0.3021,0.3052,0.3052,0.3053,0.3059,0.3058,0.3058,0.3057,0.3127,0.313,0.3133,0.3161,0,0,0.3143,0.3144,0,0,0,0,0,0,0,0,0.2995,0.2998,0.3017,0.3019,0.3021,0.3051,0.3065,0.3091,0.3059,0.3043,0.3058,0.3057,0.3106,0.3111,0.3118,0.3164,0.3167,0.3143,0.3145,0.3147,0.3148,0,0,0,0,0,0,0,0.2994,0.2997,0.3025,0.3018,0.302,0.3035,0.3038,0.307,0.3076,0.3044,0.3045,0.3052,0.3107,0.3115,0.312,0.3169,0.3143,0.3146,0.3148,0.3149,0.3253,0.3254,0,0,0,0,0,0,0.299,0.2995,0.3023,0.3026,0.3008,0.3036,0.3039,0.304,0.3075,0.308,0.3052,0.3052,0.3109,0.3116,0.3122,0.3172,0.3147,0.315,0.3151,0.3252,0.3253,0.3254,0,0,0,0,0,0,0.2989,0.2992,0.3022,0.3013,0.3018,0.3037,0.3039,0.3041,0.305,0.3081,0.3086,0.3058,0.3109,0.3118,0.3155,0.3174,0.3151,0.3154,0.3251,0.3252,0.3254,0.3262,0,0,0,0,0,0,0.2987,0.2991,0.2992,0.3012,0.3018,0.3042,0.3039,0.3043,0.3056,0.3056,0.3088,0.3094,0.311,0.315,0.3158,0.3178,0.3157,0.325,0.3252,0.3253,0.3261,0.3264,0.3266,0,0,0,0,0,0.2986,0.299,0.2991,0.2995,0.3018,0.3042,0.3047,0.3058,0.3056,0.3063,0.3086,0.3093,0.3166,0.3154,0.3163,0.3184,0.3249,0.3251,0.3253,0.326,0.3263,0.3266,0,0,0,0,0,0,0.2975,0.2992,0.2993,0.3002,0.3021,0.3044,0.3055,0.306,0.3083,0.3084,0.3107,0.3115,0.3156,0.3169,0.3155,0.3218,0.3208,0.3212,0.321,0.3213,0.3216,0.3203,0.3159,0,0,0,0,0,0.2973,0.2979,0.2999,0.3007,0.3017,0.3036,0.3047,0.3054,0.3077,0.3086,0.3106,0.3134,0.3172,0.3189,0.322,0.3256,0.3275,0.3274,0.3277,0.3279,0.3275,0.3328,0.3335,0.326,0.326,0.326,0,0,0.2971,0.2982,0.2985,0.3006,0.3021,0.3042,0.3041,0.3061,0.3076,0.3093,0.312,0.3147,0.3184,0.3224,0.3243,0.3236,0.3312,0.3281,0.3283,0.3277,0.3331,0.3338,0.3345,0.3261,0.3261,0.3261,0,0,0.2976,0.2982,0.2991,0.3009,0.3033,0.3047,0.3053,0.3075,0.3084,0.3115,0.3134,0.3167,0.3215,0.3244,0.3268,0.3303,0.3325,0.3315,0.3318,0.337,0.3376,0.3382,0.3418,0.3428,0.3314,0.3314,0.3314,0,0.2974,0.2984,0.2999,0.3017,0.3031,0.305,0.3065,0.3085,0.3114,0.3134,0.3123,0.3206,0.3225,0.3291,0.3293,0.3309,0.3337,0.3303,0.3373,0.3379,0.3385,0.3421,0.3431,0.3315,0.3315,0.3315,0.3314,0,0.2986,0.2998,0.3009,0.3035,0.3053,0.307,0.3098,0.3119,0.313,0.3154,0.3208,0.3234,0.3286,0.3295,0.3301,0.336,0.3367,0.3372,0.3363,0.3393,0.3429,0.3439,0.3316,0.3315,0.3315,0.3315,0,0,0.2964,0.3007,0.3008,0.3024,0.306,0.3077,0.3112,0.3153,0.3194,0.3212,0.326,0.3301,0.3318,0.3344,0.3362,0.3388,0.3444,0.339,0.3393,0.3422,0.3556,0.3518,0.3526,0.3468,0.347,0.3471,0.3564,0,0.2965,0.2992,0.3015,0.3047,0.3062,0.3098,0.3135,0.3178,0.3218,0.3273,0.3304,0.336,0.334,0.3368,0.3394,0.3443,0.3471,0.3417,0.3525,0.3528,0.3489,0.3537,0.34,0.3468,0.3574,0.3576,0.3577,0,0.2958,0.2979,0.2999,0.3053,0.3066,0.3091,0.3158,0.3201,0.3289,0.3325,0.3384,0.3415,0.3469,0.3437,0.3528,0.35,0.3521,0.3541,0.3547,0.3513,0.351,0.3456,0.3482,0.3392,0.3593,0.3592,0.3591,0,0.2914,0.2966,0.2976,0.2993,0.3059,0.3081,0.3126,0.3213,0.3264,0.3366,0.3411,0.3487,0.3529,0.3573,0.3605,0.3579,0.3698,0.3677,0.3663,0.366,0.3564,0.3549,0.3509,0.3731,0.3731,0.3731,0.3731,0,0.289,0.2902,0.296,0.2965,0.3004,0.3064,0.3123,0.3192,0.3293,0.3358,0.3436,0.3491,0.3563,0.3631,0.3647,0.3696,0.3744,0.3671,0.3688,0.3562,0.3548,0.348,0.3441,0.3734,0.3734,0.3733,0.3732,0,0.2828,0.2864,0.2887,0.2954,0.2978,0.3008,0.3108,0.316,0.3271,0.3357,0.3386,0.3517,0.3612,0.368,0.3768,0.3753,0.3696,0.38,0.3639,0.3634,0.3504,0.3472,0.3338,0.3247,0.3794,0.3794,0.3794,0,0.2792,0.2795,0.2861,0.2876,0.2901,0.2961,0.3001,0.3127,0.3183,0.3357,0.3385,0.3522,0.3592,0.3732,0.3752,0.3806,0.3689,0.3687,0.3598,0.3484,0.3461,0.3322,0.3244,0.3478,0.3475,0.3473,0.3471,0,0.2725,0.2748,0.2771,0.2804,0.2838,0.2893,0.2961,0.2998,0.3144,0.3211,0.3331,0.3412,0.3577,0.3582,0.3665,0.3671,0.3502,0.364,0.3568,0.3245,0.3045,0.2969,0.3428,0.345,0.3452,0.3454,0.3455,0.3456,0.2669,0.267,0.2697,0.2722,0.2763,0.2799,0.2794,0.2869,0.2931,0.3001,0.3182,0.3249,0.3375,0.3481,0.3469,0.3379,0.3375,0.3274,0.3259,0.3139,0.2988,0.3395,0.3407,0.3409,0.3411,0.3412,0.3413,0,0.2578,0.259,0.2612,0.2627,0.262,0.2688,0.2734,0.27,0.2691,0.2824,0.2901,0.3015,0.3035,0.3117,0.3123,0.3018,0.2868,0.2937,0.2704,0.266,0.3071,0.2995,0.2861,0.2861,0.2861,0.2861,0.2861,0.2861,0.253,0.2503,0.2516,0.2471,0.2481,0.2426,0.2421,0.2394,0.2441,0.2461,0.2515,0.2639,0.2831,0.2878,0.2788,0.2724,0.2522,0.2407,0.2418,0.2713,0.2742,0.277,0.2688,0.2492,0.2492,0.1881,0.1876,0.1873]},{"header":{"parameterUnit":"m.s-1","parameterCategory":2,"la1":30.2991,"la2":30.254,"lo1":-89.0895,"lo2":-89.0444,"dy":0.0017,"dx":0.0017,"nx":28,"ny":28,"refTime":"2024-02-23T09:00:00:Z","depth":"0","parameterNumber":3,"parameterNumberName":"V-component_of_CURRENTS"},"data":[0,0,0,0,0,0,0,0,0,0,0,0,0,0,0,0,0,0,0,0,0,0,0,0,0,0,0,0,0,0,0,0,0,0,0,0,0,0,0,0,0,0,0,0,0,0,0,0,0,0,0,0,0,0,0,0,0,0,0.0087,0.0086,0,0.0048,0.0048,0.0047,0.0008,0.0007,0.0007,0.0007,-0.007,-0.0072,-0.0073,0,0,0,0,0,0,0,0,0,0,0,0,0,0.0096,0.0096,0.0087,0.0086,0.0086,0.0048,0.0048,0.0047,0.0008,0.0007,0.0007,0.0006,-0.0069,-0.0071,-0.0074,0,0,0,0,0,0,0,0,0,0,0,0,0,0.0076,0.0096,0.0087,0.0064,0.0061,0.0048,0.0048,0.0047,0.0008,0.0007,0.0007,0.0006,-0.0069,-0.0071,-0.0074,-0.008,0,0,-0.0082,-0.0083,0,0,0,0,0,0,0,0,0.0077,0.0076,0.0067,0.0065,0.0063,0.0034,0.0023,0.0003,0.0008,0.0026,0.0007,0.0006,-0.0037,-0.0042,-0.0051,-0.0084,-0.0087,-0.0082,-0.0084,-0.0085,-0.0085,0,0,0,0,0,0,0,0.0079,0.0077,0.0069,0.0067,0.0064,0.0045,0.0042,0.0019,-0.0005,0.0024,0.0022,0.0021,-0.0039,-0.0048,-0.0053,-0.0088,-0.0082,-0.0084,-0.0086,-0.0087,-0.0114,-0.0113,0,0,0,0,0,0,0.009,0.0078,0.007,0.0068,0.0071,0.0046,0.0042,0.0042,-0.0004,-0.001,0.0022,0.002,-0.0044,-0.005,-0.0056,-0.0043,-0.0085,-0.0087,-0.0089,-0.0115,-0.0114,-0.0113,0,0,0,0,0,0,0.0091,0.009,0.0072,0.0074,0.0071,0.0046,0.0047,0.0042,0.0035,-0.0005,-0.0013,0.0021,-0.0044,-0.0052,-0.0065,-0.0047,-0.0088,-0.0091,-0.0116,-0.0114,-0.0113,-0.0032,0,0,0,0,0,0,0.0091,0.009,0.0094,0.0075,0.0071,0.0074,0.0047,0.0041,0.0036,0.0033,-0.0008,-0.0016,-0.0045,-0.0061,-0.0068,-0.0051,-0.0093,-0.0117,-0.0115,-0.0113,-0.0035,-0.0028,-0.0021,0,0,0,0,0,0.0092,0.0105,0.0095,0.0094,0.0078,0.0075,0.0071,0.005,0.0037,0.004,0.0015,-0.0014,-0.0056,-0.0062,-0.007,-0.0054,-0.0117,-0.0115,-0.0114,-0.0039,-0.0029,-0.0021,0,0,0,0,0,0,0.0112,0.0102,0.009,0.0099,0.0091,0.0069,0.0072,0.0057,0.004,0.0036,-0.0005,-0.0014,-0.0021,-0.0047,-0.0053,-0.0057,-0.0091,-0.0091,-0.0031,-0.0023,-0.0016,0.0002,-0.0095,0,0,0,0,0,0.0119,0.0125,0.0111,0.0118,0.0117,0.0095,0.0091,0.0078,0.0061,0.0052,0.0025,-0.0002,-0.0019,-0.0028,-0.0053,-0.0052,-0.0075,-0.0047,-0.004,-0.0034,-0.0025,-0.0039,-0.0032,-0.0106,-0.0106,-0.0106,0,0,0.0129,0.0124,0.0127,0.0122,0.0113,0.0125,0.0091,0.0092,0.0101,0.0047,0.0049,0.0018,-0.0015,-0.0016,-0.0021,-0.0035,-0.0024,-0.0032,-0.0026,-0.002,-0.0036,-0.0029,-0.0023,-0.0105,-0.0105,-0.0105,0,0,0.0158,0.0148,0.0165,0.0162,0.0155,0.0148,0.0153,0.0136,0.0127,0.0125,0.009,0.0077,0.0045,0.0032,0.002,0.0052,0.001,0.004,0.0096,0.0082,0.0089,0.0094,0.0078,0.0081,0.005,0.005,0.005,0,0.017,0.0189,0.0169,0.0185,0.0191,0.0165,0.0188,0.018,0.016,0.0165,0.0136,0.0105,0.0072,0.0082,0.0091,0.0069,0.0052,0.0067,0.0093,0.0097,0.0101,0.0084,0.0086,0.0054,0.0053,0.0053,0.0053,0,0.0212,0.0226,0.0238,0.0251,0.0254,0.027,0.026,0.026,0.0245,0.024,0.0238,0.0192,0.0177,0.0164,0.0135,0.0152,0.0127,0.01,0.0074,0.0114,0.0092,0.0094,0.006,0.0058,0.0057,0.0056,0,0,0.0247,0.0264,0.027,0.0288,0.0292,0.0303,0.032,0.0337,0.0368,0.0331,0.0359,0.0318,0.0292,0.0277,0.0237,0.0225,0.0232,0.018,0.0177,0.017,0.0202,0.0189,0.0188,0.0208,0.0208,0.0209,0.0178,0,0.0289,0.0338,0.0332,0.0381,0.0408,0.039,0.0417,0.0424,0.0427,0.0447,0.04,0.0406,0.0337,0.0332,0.0309,0.0255,0.0237,0.0242,0.0159,0.0157,0.0146,0.019,0.0188,0.0161,0.0178,0.0178,0.0178,0,0.0337,0.0365,0.0419,0.0457,0.0468,0.0491,0.0535,0.0558,0.0575,0.0575,0.0565,0.0524,0.05,0.0431,0.0358,0.0364,0.029,0.0239,0.0236,0.0197,0.0147,0.0122,0.0161,0.0018,0.0179,0.0179,0.0179,0,0.0384,0.0429,0.0477,0.0487,0.0524,0.0543,0.057,0.0601,0.0647,0.066,0.0687,0.0639,0.0624,0.0529,0.0409,0.0385,0.0328,0.0279,0.0196,0.0194,0.0163,0.0157,0.0059,0.0224,0.0224,0.0224,0.0224,0,0.0437,0.0475,0.0503,0.053,0.0599,0.0602,0.0687,0.0701,0.0755,0.083,0.076,0.0799,0.0647,0.0587,0.0459,0.0344,0.0362,0.0219,0.0192,0.0191,0.0189,0.0038,-0.0033,0.0222,0.0223,0.0223,0.0223,0,0.0481,0.0497,0.0558,0.0604,0.0623,0.0677,0.0764,0.0835,0.0863,0.0954,0.0957,0.093,0.0851,0.0692,0.0551,0.0424,0.0227,0.0249,0.0258,0.0233,0.0016,-0.0049,-0.0164,-0.0213,0.0157,0.0157,0.0157,0,0.0508,0.0544,0.0615,0.0662,0.0684,0.0764,0.0831,0.0887,0.0974,0.1045,0.1101,0.1044,0.1039,0.0829,0.0584,0.0365,0.0223,0.0213,0.0161,0.0019,-0.0074,-0.0128,-0.0165,0.0148,0.0148,0.0148,0.0147,0,0.0565,0.0588,0.0639,0.0738,0.081,0.0908,0.1007,0.1088,0.1164,0.1239,0.1332,0.133,0.1118,0.0908,0.0593,0.0431,0.0123,0.02,0.005,-0.0082,-0.0145,-0.0209,0.0148,0.0145,0.0145,0.0145,0.0145,0.0145,0.0607,0.0658,0.0729,0.0824,0.0916,0.1042,0.1135,0.1248,0.1388,0.1501,0.1498,0.1527,0.1204,0.0784,0.0536,0.0085,0.0094,-0.0058,-0.0122,-0.0163,-0.0216,0.014,0.0106,0.0107,0.0107,0.0107,0.0107,0,0.066,0.072,0.0812,0.0931,0.1045,0.1082,0.1248,0.1348,0.1511,0.1617,0.1688,0.1568,0.1163,0.0741,0.0134,-0.0183,-0.0292,-0.0351,-0.0442,-0.0461,-0.0152,-0.016,-0.0248,-0.0248,-0.0248,-0.0247,-0.0247,-0.0247,0.0689,0.0783,0.0833,0.1019,0.1107,0.1264,0.1361,0.15,0.1616,0.1757,0.1795,0.1797,0.1496,0.041,-0.033,-0.0499,-0.0694,-0.0748,-0.0833,-0.065,-0.0628,-0.0608,-0.0633,-0.082,-0.082,-0.1116,-0.1119,-0.1121]}],[{"header":{"parameterUnit":"m.s-1","parameterCategory":2,"la1":30.2991,"la2":30.254,"lo1":-89.0895,"lo2":-89.0444,"dy":0.0017,"dx":0.0017,"nx":28,"ny":28,"refTime":"2024-02-23T09:00:00:Z","depth":"2","parameterNumber":2,"parameterNumberName":"U-component_of_CURRENTS"},"data":[0,0,0,0,0,0,0,0,0,0,0,0,0,0,0,0,0,0,0,0,0,0,0,0,0,0,0,0,0,0,0,0,0,0,0,0,0,0,0,0,0,0,0,0,0,0,0,0,0,0,0,0,0,0,0,0,0,0,0.2424,0.2425,0,0.2454,0.2455,0.2455,0.2462,0.2462,0.2462,0.2462,0.2496,0.2497,0.2498,0,0,0,0,0,0,0,0,0,0,0,0,0,0.2383,0.2383,0.2424,0.2425,0.2425,0.2454,0.2455,0.2455,0.2462,0.2462,0.2462,0.2462,0.2496,0.2497,0.2498,0,0,0,0,0,0,0,0,0,0,0,0,0,0.2403,0.2384,0.2424,0.2434,0.2436,0.2454,0.2455,0.2455,0.2461,0.2462,0.2462,0.2462,0.2496,0.2497,0.2498,0.2506,0,0,0.2502,0.2503,0,0,0,0,0,0,0,0,0.2402,0.2404,0.2432,0.2434,0.2435,0.2457,0.2453,0.2473,0.2461,0.2449,0.2462,0.2462,0.2485,0.2487,0.2489,0.2507,0.2509,0.2502,0.2503,0.2504,0.2504,0,0,0,0,0,0,0,0.2401,0.2403,0.2433,0.2433,0.2435,0.2441,0.2444,0.2457,0.2464,0.245,0.2451,0.2459,0.2486,0.2488,0.249,0.2509,0.2502,0.2504,0.2504,0.2505,0.2569,0.257,0,0,0,0,0,0,0.2402,0.2402,0.2433,0.2435,0.2421,0.2442,0.2445,0.2448,0.2464,0.2468,0.2459,0.2459,0.2485,0.2488,0.2491,0.2538,0.2504,0.2505,0.2506,0.2568,0.2569,0.257,0,0,0,0,0,0,0.2401,0.2404,0.2431,0.2421,0.2426,0.2443,0.2446,0.2448,0.246,0.2471,0.2474,0.247,0.2486,0.2489,0.2516,0.2538,0.2506,0.2507,0.2567,0.2569,0.257,0.2608,0,0,0,0,0,0,0.2399,0.2403,0.2408,0.2421,0.2426,0.2449,0.2446,0.2449,0.2465,0.2466,0.2482,0.2484,0.2486,0.2514,0.2517,0.2539,0.2508,0.2566,0.2568,0.257,0.2605,0.261,0.2614,0,0,0,0,0,0.2397,0.2404,0.2408,0.2412,0.2431,0.245,0.2453,0.2463,0.2466,0.2473,0.2488,0.2484,0.2527,0.2516,0.2519,0.2542,0.2565,0.2567,0.2569,0.2603,0.2609,0.2614,0,0,0,0,0,0,0.2389,0.2406,0.241,0.2422,0.2438,0.2452,0.2464,0.247,0.2486,0.2491,0.2497,0.2501,0.2531,0.2531,0.2519,0.2565,0.2545,0.2548,0.257,0.2575,0.258,0.2577,0.2509,0,0,0,0,0,0.2389,0.2399,0.2416,0.2427,0.2438,0.2452,0.2463,0.247,0.2486,0.2493,0.2506,0.2522,0.2541,0.2554,0.2566,0.2593,0.2601,0.261,0.2614,0.2618,0.2618,0.2657,0.2665,0.2577,0.2577,0.2577,0,0,0.239,0.2401,0.2407,0.2426,0.2441,0.2459,0.2459,0.2479,0.2494,0.2495,0.2523,0.2537,0.2551,0.2581,0.2595,0.2586,0.2648,0.2621,0.2624,0.2622,0.266,0.2669,0.2676,0.2578,0.2578,0.2578,0,0,0.2395,0.2407,0.2418,0.2434,0.2459,0.247,0.2478,0.25,0.251,0.2536,0.2545,0.2572,0.2598,0.2615,0.2626,0.2663,0.2668,0.267,0.2695,0.2733,0.2741,0.2747,0.2769,0.2777,0.2675,0.2675,0.2675,0,0.2396,0.2408,0.2424,0.2442,0.2456,0.2477,0.2491,0.251,0.2536,0.2556,0.2549,0.2606,0.2612,0.266,0.267,0.2673,0.2692,0.2674,0.2739,0.2746,0.2752,0.2773,0.2781,0.2677,0.2677,0.2677,0.2676,0,0.2408,0.2423,0.2434,0.2461,0.2478,0.2496,0.2522,0.2547,0.2563,0.2585,0.2633,0.2648,0.2685,0.2692,0.269,0.2745,0.2743,0.2739,0.2726,0.2764,0.2782,0.2791,0.268,0.2679,0.2679,0.2678,0,0,0.2391,0.2433,0.2436,0.2452,0.2487,0.2503,0.2538,0.2576,0.2617,0.2641,0.2687,0.2717,0.2738,0.2751,0.2763,0.2789,0.2843,0.2785,0.2786,0.2806,0.2926,0.2871,0.2875,0.286,0.2862,0.2863,0.2921,0,0.2394,0.242,0.2441,0.2473,0.2488,0.2524,0.2558,0.26,0.2641,0.2696,0.2724,0.2773,0.276,0.2788,0.2814,0.2842,0.2868,0.2827,0.2886,0.2887,0.2834,0.2883,0.266,0.2689,0.293,0.2931,0.2932,0,0.239,0.2409,0.2431,0.248,0.2493,0.2519,0.2584,0.2625,0.2708,0.2744,0.2804,0.2832,0.2886,0.286,0.293,0.291,0.2919,0.2928,0.2931,0.287,0.2848,0.269,0.2695,0.2946,0.2945,0.2944,0.2943,0,0.2354,0.2401,0.2415,0.2431,0.2491,0.2516,0.256,0.264,0.2688,0.2789,0.2833,0.2903,0.2946,0.2974,0.2994,0.2974,0.3058,0.3035,0.299,0.2986,0.28,0.2777,0.3075,0.3075,0.3075,0.3074,0.3074,0,0.2334,0.235,0.2404,0.2413,0.2452,0.2506,0.2567,0.2631,0.2724,0.2787,0.2863,0.2916,0.2978,0.3028,0.3028,0.3043,0.3094,0.3003,0.3004,0.2806,0.2784,0.3006,0.2997,0.3077,0.3076,0.3076,0.3075,0,0.2284,0.2319,0.2344,0.2407,0.2432,0.2464,0.2559,0.2608,0.2713,0.2795,0.2827,0.2947,0.3019,0.3063,0.3121,0.3089,0.3103,0.309,0.2848,0.2819,0.2993,0.2986,0.3048,0.3046,0.3045,0.3044,0.3043,0,0.2257,0.2263,0.2327,0.2343,0.2371,0.2431,0.247,0.2586,0.264,0.2799,0.2827,0.2943,0.2999,0.3078,0.3052,0.3056,0.31,0.2835,0.2748,0.2999,0.2994,0.2988,0.2983,0.2516,0.2511,0.2507,0.2504,0,0.2204,0.2229,0.2252,0.2283,0.232,0.2366,0.2436,0.2472,0.2607,0.2674,0.2778,0.2843,0.2942,0.2856,0.2875,0.284,0.2817,0.2752,0.3089,0.2561,0.2503,0.2497,0.2508,0.2467,0.2471,0.2473,0.2475,0.2477,0.2163,0.2163,0.2191,0.2214,0.2254,0.2278,0.2278,0.2352,0.2412,0.248,0.2628,0.2646,0.2691,0.2612,0.2533,0.2468,0.2654,0.2517,0.2527,0.2542,0.2474,0.2417,0.2352,0.2354,0.2357,0.2359,0.2361,0,0.209,0.2099,0.2117,0.2129,0.2121,0.2184,0.2227,0.2198,0.2201,0.2303,0.2363,0.2208,0.2171,0.221,0.2063,0.2062,0.2018,0.1968,0.1884,0.1924,0.1958,0.1856,0.1572,0.1569,0.1567,0.1564,0,0,0.2051,0.2026,0.2029,0.1983,0.1996,0.195,0.1947,0.1925,0.1956,0.193,0.1924,0.2091,0.2172,0.1846,0.1804,0.1662,0.1775,0.1599,0.224,0.2183,0.2214,0.2294,0.2186,0,0,0,0,0]},{"header":{"parameterUnit":"m.s-1","parameterCategory":2,"la1":30.2991,"la2":30.254,"lo1":-89.0895,"lo2":-89.0444,"dy":0.0017,"dx":0.0017,"nx":28,"ny":28,"refTime":"2024-02-23T09:00:00:Z","depth":"2","parameterNumber":3,"parameterNumberName":"V-component_of_CURRENTS"},"data":[0,0,0,0,0,0,0,0,0,0,0,0,0,0,0,0,0,0,0,0,0,0,0,0,0,0,0,0,0,0,0,0,0,0,0,0,0,0,0,0,0,0,0,0,0,0,0,0,0,0,0,0,0,0,0,0,0,0,0.0176,0.0176,0,0.0147,0.0147,0.0146,0.0116,0.0116,0.0115,0.0115,0.0066,0.0065,0.0064,0,0,0,0,0,0,0,0,0,0,0,0,0,0.0183,0.0183,0.0177,0.0176,0.0176,0.0147,0.0147,0.0146,0.0116,0.0116,0.0115,0.0115,0.0066,0.0065,0.0064,0,0,0,0,0,0,0,0,0,0,0,0,0,0.0168,0.0183,0.0177,0.0159,0.0157,0.0148,0.0147,0.0146,0.0116,0.0116,0.0115,0.0115,0.0066,0.0065,0.0063,0.0062,0,0,0.0059,0.0058,0,0,0,0,0,0,0,0,0.0169,0.0168,0.0161,0.016,0.0158,0.0136,0.0131,0.0118,0.0116,0.013,0.0115,0.0115,0.0089,0.0085,0.0079,0.006,0.0058,0.0058,0.0057,0.0057,0.0056,0,0,0,0,0,0,0,0.017,0.0169,0.0163,0.0161,0.0159,0.0144,0.0142,0.0128,0.0111,0.0129,0.0127,0.0126,0.0087,0.008,0.0077,0.0057,0.0058,0.0057,0.0056,0.0055,0.0041,0.0041,0,0,0,0,0,0,0.0179,0.017,0.0164,0.0163,0.0164,0.0145,0.0142,0.0142,0.0111,0.0106,0.0127,0.0125,0.0083,0.0079,0.0076,0.0086,0.0057,0.0055,0.0054,0.004,0.0041,0.0042,0,0,0,0,0,0,0.0179,0.0178,0.0166,0.0167,0.0164,0.0145,0.0146,0.0142,0.0136,0.011,0.0104,0.0125,0.0083,0.0078,0.0073,0.0083,0.0055,0.0053,0.004,0.0041,0.0041,0.0098,0,0,0,0,0,0,0.0179,0.0179,0.0182,0.0167,0.0165,0.0166,0.0146,0.0142,0.0137,0.0135,0.0107,0.0102,0.0082,0.0075,0.0071,0.0081,0.0052,0.0039,0.004,0.0041,0.0096,0.0101,0.0105,0,0,0,0,0,0.0179,0.019,0.0183,0.0182,0.017,0.0167,0.0164,0.0147,0.0138,0.014,0.0125,0.0103,0.0079,0.0075,0.007,0.0079,0.0039,0.004,0.0041,0.0093,0.01,0.0105,0,0,0,0,0,0,0.0196,0.0188,0.0179,0.0187,0.0179,0.0162,0.0165,0.0152,0.0141,0.014,0.0112,0.0106,0.0103,0.0085,0.0081,0.0078,0.0054,0.0055,0.0096,0.0102,0.0106,0.012,0.0051,0,0,0,0,0,0.0201,0.0206,0.0195,0.0201,0.02,0.0183,0.0179,0.0169,0.0157,0.0152,0.0134,0.0117,0.0104,0.0099,0.0083,0.0085,0.006,0.0087,0.0091,0.0096,0.0104,0.0077,0.008,0.0046,0.0046,0.0046,0,0,0.0209,0.0206,0.0208,0.0204,0.0197,0.0208,0.018,0.018,0.0187,0.0149,0.0154,0.0132,0.0108,0.0108,0.0105,0.0095,0.0092,0.0097,0.0101,0.0107,0.0079,0.0082,0.0085,0.0047,0.0047,0.0046,0,0,0.0233,0.0226,0.024,0.0237,0.0232,0.0227,0.023,0.0217,0.0209,0.021,0.0185,0.0173,0.0155,0.0142,0.0132,0.0155,0.0117,0.0148,0.0187,0.0161,0.0163,0.0165,0.0136,0.0135,0.0153,0.0153,0.0153,0,0.0243,0.0259,0.0243,0.0256,0.0262,0.024,0.026,0.0252,0.0238,0.0241,0.022,0.0196,0.0171,0.0175,0.0182,0.0166,0.0144,0.0167,0.0167,0.0169,0.017,0.0139,0.0137,0.0156,0.0156,0.0155,0.0155,0,0.0277,0.0289,0.0299,0.0311,0.0314,0.0327,0.0318,0.0318,0.0306,0.0301,0.0295,0.0258,0.0246,0.0233,0.0214,0.0215,0.0194,0.0174,0.0154,0.0177,0.0143,0.014,0.016,0.0159,0.0158,0.0157,0,0,0.0304,0.0321,0.0325,0.0341,0.0345,0.0355,0.0367,0.0379,0.0401,0.0369,0.0384,0.0352,0.033,0.0318,0.0285,0.0262,0.0244,0.0228,0.0225,0.0202,0.0185,0.0158,0.0152,0.0224,0.0224,0.0224,0.0157,0,0.0339,0.038,0.0375,0.0418,0.0442,0.0426,0.0447,0.045,0.0449,0.0458,0.0411,0.0414,0.0364,0.0359,0.0327,0.0269,0.024,0.0264,0.0164,0.0161,0.0136,0.0149,0.0166,0.0107,0.0154,0.0154,0.0153,0,0.0378,0.0402,0.0448,0.0481,0.049,0.051,0.0543,0.056,0.0563,0.0559,0.0543,0.0507,0.0472,0.042,0.0328,0.0347,0.0274,0.0218,0.0214,0.0169,0.0129,0.0092,0.01,0.0148,0.0148,0.0149,0.0149,0,0.0415,0.0455,0.0496,0.0505,0.0537,0.0553,0.0576,0.0595,0.063,0.0627,0.0642,0.0588,0.0567,0.0468,0.035,0.0341,0.024,0.021,0.0114,0.011,0.0096,0.0092,0.014,0.014,0.014,0.014,0.014,0,0.0458,0.0491,0.0518,0.054,0.06,0.0603,0.0672,0.0681,0.0715,0.0768,0.0702,0.0718,0.0579,0.0501,0.0378,0.0241,0.0258,0.0124,0.0094,0.0116,0.0114,0.0126,0.0125,0.0138,0.0138,0.0139,0.0139,0,0.0493,0.0508,0.056,0.0601,0.0619,0.0666,0.074,0.0795,0.0809,0.0869,0.0869,0.0823,0.0722,0.0567,0.0412,0.029,0.0153,0.0097,0.0129,0.0105,0.0031,0.0034,-0.0017,-0.0019,-0.002,-0.0021,-0.0022,0,0.0514,0.0545,0.0608,0.0649,0.067,0.074,0.0798,0.0842,0.0909,0.0938,0.0973,0.0894,0.0856,0.0612,0.0386,0.0162,0.014,0.0029,0.0009,0.004,0.0016,0.0021,0.0025,0.0009,0.0008,0.0008,0.0008,0,0.0558,0.058,0.0625,0.0712,0.0776,0.0861,0.0944,0.1007,0.1062,0.1105,0.1144,0.111,0.0875,0.0662,0.0352,0.02,0.0064,0.0012,0.004,0.0048,0.006,0.0038,0.0042,0.0004,0.0004,0.0004,0.0005,0.0005,0.0592,0.0636,0.0698,0.0783,0.0865,0.0972,0.1049,0.1137,0.124,0.1298,0.1268,0.1217,0.0965,0.0573,0.0304,0.0022,0.0037,-0.0061,-0.0057,-0.0053,-0.0037,-0.0027,-0.0097,-0.0097,-0.0097,-0.0097,-0.0097,0,0.0635,0.0686,0.0766,0.0871,0.097,0.1007,0.1142,0.1217,0.1333,0.1376,0.1396,0.1153,0.0904,0.0609,0.0189,-0.006,-0.0074,-0.0138,-0.0096,-0.009,-0.0085,-0.0069,-0.0138,-0.0139,-0.014,-0.0141,0,0,0.0657,0.0738,0.0781,0.0941,0.1021,0.1156,0.1236,0.1332,0.1397,0.1439,0.1411,0.1343,0.0993,0.0684,0.0344,0.0104,0.0065,0.0054,0.0114,0.0211,0.0219,-0.0014,0.0021,0,0,0,0,0]}],[{"header":{"parameterUnit":"m.s-1","parameterCategory":2,"la1":30.2991,"la2":30.254,"lo1":-89.0895,"lo2":-89.0444,"dy":0.0017,"dx":0.0017,"nx":28,"ny":28,"refTime":"2024-02-23T09:00:00:Z","depth":"4","parameterNumber":2,"parameterNumberName":"U-component_of_CURRENTS"},"data":[0,0,0,0,0,0,0,0,0,0,0,0,0,0,0,0,0,0,0,0,0,0,0,0,0,0,0,0,0,0,0,0,0,0,0,0,0,0,0,0,0,0,0,0,0,0,0,0,0,0,0,0,0,0,0,0,0,0,0.1539,0.154,0,0.1582,0.1583,0.1583,0.1625,0.1626,0.1627,0.1628,0.1663,0.1664,0.1664,0,0,0,0,0,0,0,0,0,0,0,0,0,0.147,0.1471,0.1539,0.154,0.1541,0.1582,0.1583,0.1583,0.1625,0.1626,0.1627,0.1628,0.1663,0.1664,0.1664,0,0,0,0,0,0,0,0,0,0,0,0,0,0.1502,0.1472,0.1539,0.157,0.1573,0.1582,0.1583,0.1583,0.1625,0.1626,0.1628,0.1629,0.1663,0.1664,0.1664,0.1638,0,0,0.1664,0.1664,0,0,0,0,0,0,0,0,0.15,0.1504,0.1564,0.1568,0.1571,0.1603,0.1572,0.1602,0.1625,0.1601,0.1628,0.163,0.1644,0.1646,0.1646,0.164,0.1641,0.1664,0.1664,0.1664,0.1665,0,0,0,0,0,0,0,0.1498,0.1502,0.1553,0.1565,0.157,0.1574,0.1579,0.1577,0.1612,0.1604,0.1608,0.1618,0.1645,0.1646,0.1647,0.1642,0.1664,0.1664,0.1665,0.1665,0.1729,0.1731,0,0,0,0,0,0,0.15,0.15,0.1551,0.1554,0.1542,0.1574,0.1581,0.1589,0.1612,0.1618,0.1617,0.162,0.1645,0.1647,0.1649,0.1714,0.1664,0.1665,0.1665,0.1727,0.1729,0.1731,0,0,0,0,0,0,0.1498,0.1504,0.155,0.1531,0.1538,0.1575,0.1583,0.1589,0.1626,0.1623,0.1628,0.1652,0.1646,0.1648,0.1681,0.1712,0.1665,0.1665,0.1726,0.1728,0.173,0.1784,0,0,0,0,0,0,0.1496,0.1503,0.1522,0.1531,0.1539,0.1577,0.1582,0.1589,0.1629,0.1635,0.1654,0.1657,0.1647,0.1681,0.1682,0.1712,0.1665,0.1724,0.1727,0.1729,0.178,0.1788,0.1795,0,0,0,0,0,0.1493,0.1509,0.1523,0.153,0.156,0.1578,0.1583,0.161,0.163,0.1648,0.1668,0.1658,0.1701,0.1683,0.1683,0.1713,0.1722,0.1726,0.1729,0.1777,0.1787,0.1795,0,0,0,0,0,0,0.1491,0.1516,0.1531,0.1555,0.1578,0.1587,0.1613,0.1629,0.1658,0.1674,0.1672,0.1676,0.1717,0.1709,0.1689,0.1743,0.1712,0.1716,0.1749,0.1758,0.1765,0.1772,0.1665,0,0,0,0,0,0.1498,0.1521,0.1541,0.1566,0.158,0.1603,0.1621,0.1639,0.1659,0.1676,0.1692,0.171,0.1724,0.1738,0.1746,0.177,0.1768,0.1793,0.1801,0.1807,0.1815,0.184,0.185,0.1743,0.1743,0.1743,0,0,0.1506,0.1524,0.1539,0.1568,0.159,0.161,0.1618,0.1654,0.1679,0.1672,0.1724,0.1736,0.1737,0.1769,0.1787,0.1771,0.1836,0.1811,0.1816,0.1821,0.1845,0.1856,0.1865,0.1745,0.1745,0.1745,0,0,0.152,0.155,0.157,0.1591,0.163,0.164,0.1659,0.169,0.1717,0.1756,0.1764,0.18,0.182,0.183,0.1834,0.1886,0.1873,0.1895,0.1938,0.1963,0.1971,0.1979,0.1987,0.1995,0.1899,0.1899,0.1899,0,0.1532,0.1555,0.1579,0.1602,0.1624,0.1658,0.168,0.1707,0.1748,0.1775,0.1785,0.1843,0.1848,0.1884,0.1908,0.1903,0.1911,0.1901,0.1971,0.1979,0.1986,0.1993,0.2001,0.1902,0.1902,0.1902,0.1901,0,0.1547,0.1579,0.1596,0.1634,0.1659,0.1688,0.1722,0.1764,0.1803,0.183,0.1894,0.1908,0.1946,0.1954,0.1947,0.2003,0.1991,0.1976,0.1946,0.2,0.2004,0.2011,0.1907,0.1906,0.1905,0.1904,0,0,0.1536,0.1595,0.1604,0.163,0.168,0.1699,0.175,0.1799,0.1849,0.1898,0.1955,0.1993,0.2022,0.203,0.2035,0.2059,0.2114,0.2047,0.2047,0.205,0.2167,0.2033,0.2028,0.2116,0.2117,0.2119,0.2148,0,0.1543,0.1584,0.1613,0.1662,0.1684,0.1734,0.1777,0.1831,0.1886,0.1952,0.199,0.2048,0.2044,0.2078,0.2104,0.2116,0.2137,0.2107,0.2119,0.2119,0.199,0.2033,0.2124,0.2153,0.2155,0.2156,0.2157,0,0.154,0.157,0.1613,0.1678,0.1696,0.1736,0.1818,0.1866,0.1958,0.2005,0.2075,0.2108,0.2169,0.2152,0.2206,0.2191,0.219,0.2188,0.2189,0.2051,0.1999,0.209,0.217,0.2169,0.2168,0.2167,0.2167,0,0.1502,0.1569,0.1605,0.1628,0.1705,0.1748,0.1802,0.1891,0.1944,0.2056,0.2107,0.2177,0.2227,0.2246,0.2258,0.2245,0.2297,0.2271,0.2146,0.2136,0.2223,0.2215,0.2303,0.2303,0.2303,0.2303,0.2302,0,0.1477,0.1514,0.1602,0.1622,0.1682,0.1746,0.1827,0.1895,0.1994,0.2056,0.2145,0.2191,0.2258,0.2292,0.2284,0.2238,0.2322,0.2159,0.2138,0.2245,0.2238,0.2228,0.2219,0.2304,0.2303,0.2303,0.2303,0,0.1423,0.1482,0.1533,0.1628,0.1666,0.1715,0.1833,0.1884,0.1998,0.208,0.2119,0.2225,0.2269,0.2304,0.2334,0.226,0.2233,0.2193,0.231,0.2294,0.2048,0.2041,0.2051,0.2046,0.2043,0.2039,0.2037,0,0.1394,0.1417,0.1529,0.1564,0.1615,0.17,0.1751,0.1873,0.1926,0.2076,0.2099,0.2193,0.2243,0.218,0.2228,0.2198,0.2168,0.2135,0.2084,0.2045,0.2024,0.2024,0.2022,0.2031,0.203,0.2029,0.2028,0,0.1336,0.1395,0.1438,0.1507,0.1572,0.1631,0.172,0.1744,0.1877,0.1995,0.2029,0.2042,0.2085,0.2095,0.209,0.2063,0.2145,0.2095,0.2102,0.2054,0.2021,0.2004,0.2007,0.2015,0.2017,0.2018,0.2019,0,0.1302,0.1317,0.1383,0.1432,0.1506,0.1532,0.1592,0.1646,0.171,0.1871,0.1878,0.1973,0.2073,0.2026,0.202,0.1987,0.1948,0.1867,0.1885,0.19,0.1834,0.1769,0.1672,0,0,0,0,0,0.1252,0.1254,0.1295,0.1337,0.1405,0.1448,0.1551,0.1614,0.1741,0.1721,0.1794,0.1824,0.1823,0.1873,0.1805,0.1941,0.195,0.1851,0.1866,0.1943,0.1958,0.1892,0,0,0,0,0,0,0.1215,0.1252,0.1258,0.1246,0.1257,0.1316,0.1377,0.1466,0.1466,0.1602,0.1615,0.1712,0.1742,0.1842,0.177,0.1781,0.1751,0.1912,0.1907,0.1935,0.1948,0.196,0.1898,0,0,0,0,0]},{"header":{"parameterUnit":"m.s-1","parameterCategory":2,"la1":30.2991,"la2":30.254,"lo1":-89.0895,"lo2":-89.0444,"dy":0.0017,"dx":0.0017,"nx":28,"ny":28,"refTime":"2024-02-23T09:00:00:Z","depth":"4","parameterNumber":3,"parameterNumberName":"V-component_of_CURRENTS"},"data":[0,0,0,0,0,0,0,0,0,0,0,0,0,0,0,0,0,0,0,0,0,0,0,0,0,0,0,0,0,0,0,0,0,0,0,0,0,0,0,0,0,0,0,0,0,0,0,0,0,0,0,0,0,0,0,0,0,0,0.0161,0.0161,0,0.0147,0.0147,0.0147,0.0134,0.0134,0.0134,0.0134,0.0115,0.0114,0.0114,0,0,0,0,0,0,0,0,0,0,0,0,0,0.0161,0.0161,0.0161,0.0161,0.0161,0.0147,0.0147,0.0147,0.0134,0.0134,0.0134,0.0134,0.0115,0.0114,0.0114,0,0,0,0,0,0,0,0,0,0,0,0,0,0.0154,0.0161,0.0161,0.0154,0.0153,0.0147,0.0147,0.0147,0.0134,0.0134,0.0134,0.0134,0.0115,0.0114,0.0114,0.0112,0,0,0.0112,0.0111,0,0,0,0,0,0,0,0,0.0155,0.0154,0.0155,0.0154,0.0153,0.0143,0.014,0.0135,0.0134,0.014,0.0134,0.0133,0.0124,0.0123,0.0119,0.0111,0.011,0.0112,0.0111,0.0111,0.0111,0,0,0,0,0,0,0,0.0155,0.0155,0.0155,0.0155,0.0154,0.0146,0.0145,0.0139,0.0132,0.014,0.0139,0.0139,0.0124,0.012,0.0119,0.011,0.0112,0.0111,0.0111,0.011,0.0103,0.0103,0,0,0,0,0,0,0.016,0.0155,0.0155,0.0154,0.0155,0.0146,0.0145,0.0146,0.0132,0.0131,0.0139,0.0138,0.0121,0.0119,0.0118,0.0128,0.0111,0.011,0.011,0.0103,0.0103,0.0103,0,0,0,0,0,0,0.016,0.016,0.0156,0.0155,0.0154,0.0146,0.0147,0.0145,0.0145,0.0132,0.013,0.0141,0.0121,0.0119,0.0119,0.0127,0.011,0.0109,0.0103,0.0103,0.0103,0.014,0,0,0,0,0,0,0.016,0.016,0.0164,0.0156,0.0154,0.0157,0.0147,0.0145,0.0145,0.0144,0.0133,0.0131,0.0121,0.012,0.0119,0.0126,0.0109,0.0102,0.0103,0.0103,0.0139,0.0142,0.0144,0,0,0,0,0,0.016,0.0168,0.0165,0.0165,0.016,0.0157,0.0156,0.0149,0.0146,0.0148,0.0142,0.0131,0.0121,0.012,0.0118,0.0125,0.0102,0.0103,0.0103,0.0137,0.0141,0.0144,0,0,0,0,0,0,0.017,0.0167,0.0163,0.017,0.0166,0.0156,0.016,0.0153,0.0149,0.0151,0.0136,0.0134,0.0136,0.0125,0.0124,0.0123,0.0109,0.0109,0.0136,0.0139,0.0142,0.0151,0.0108,0,0,0,0,0,0.0174,0.018,0.0173,0.0178,0.0179,0.017,0.0169,0.0164,0.0159,0.0157,0.015,0.0142,0.0135,0.0134,0.0126,0.0128,0.0104,0.0129,0.0132,0.0135,0.014,0.0107,0.0108,0.0105,0.0105,0.0105,0,0,0.018,0.0179,0.0183,0.0181,0.0179,0.0187,0.0169,0.0172,0.0177,0.0156,0.0165,0.0152,0.0137,0.0139,0.0139,0.0133,0.0122,0.0135,0.0138,0.0142,0.0108,0.0108,0.0108,0.0105,0.0105,0.0105,0,0,0.0196,0.0195,0.0205,0.0204,0.0203,0.0201,0.0204,0.0198,0.0195,0.0199,0.0184,0.0176,0.017,0.0159,0.0152,0.0165,0.0137,0.0163,0.0187,0.0156,0.0155,0.0155,0.0121,0.0117,0.0166,0.0166,0.0166,0,0.0204,0.0216,0.0207,0.0217,0.0223,0.0211,0.0225,0.0221,0.0216,0.0217,0.0207,0.0193,0.0178,0.0176,0.0181,0.0171,0.0149,0.0177,0.0159,0.0158,0.0157,0.0122,0.0118,0.0168,0.0168,0.0168,0.0167,0,0.0226,0.0237,0.0245,0.0256,0.0259,0.027,0.0265,0.0267,0.0264,0.026,0.0255,0.023,0.0222,0.0213,0.0203,0.0193,0.0178,0.0165,0.0152,0.016,0.0122,0.0117,0.0171,0.017,0.0169,0.0169,0,0,0.0241,0.0258,0.0262,0.0275,0.0282,0.0289,0.03,0.0308,0.0322,0.0304,0.031,0.0289,0.0275,0.0266,0.0243,0.0216,0.0186,0.0195,0.0192,0.0163,0.0114,0.01,0.0093,0.0172,0.0171,0.0171,0.0089,0,0.0264,0.0294,0.0294,0.0327,0.0345,0.0338,0.0354,0.0357,0.0356,0.0359,0.0323,0.0324,0.0295,0.0293,0.026,0.0208,0.0174,0.0209,0.0109,0.0106,0.0094,0.0087,0.0169,0.0085,0.0083,0.0082,0.0082,0,0.0287,0.0306,0.0341,0.037,0.0378,0.0396,0.0421,0.0433,0.043,0.0427,0.0412,0.0386,0.0349,0.0318,0.0227,0.0252,0.019,0.014,0.0136,0.0108,0.0083,0.0075,0.0072,0.0072,0.0073,0.0074,0.0074,0,0.0308,0.0341,0.0373,0.0381,0.041,0.0426,0.0446,0.0459,0.0481,0.0474,0.0481,0.043,0.0407,0.0322,0.0223,0.0226,0.011,0.0099,0.0023,0.0021,0.0042,0.0043,0.0028,0.0028,0.0028,0.0028,0.0028,0,0.0331,0.0358,0.0389,0.0406,0.0454,0.0461,0.0513,0.052,0.054,0.0572,0.0524,0.0521,0.0408,0.0329,0.0232,0.0111,0.0114,0.0025,-0.0,0.0059,0.0063,0.0037,0.004,0.0025,0.0026,0.0026,0.0027,0,0.0347,0.0365,0.0407,0.0447,0.0466,0.0503,0.0565,0.0602,0.0613,0.0645,0.0644,0.0588,0.0486,0.0358,0.0213,0.013,0.001,-0.0036,0.0034,0.0013,-0.0061,-0.0056,-0.0125,-0.0126,-0.0127,-0.0128,-0.0129,0,0.0356,0.038,0.044,0.0475,0.0497,0.0557,0.0602,0.0637,0.0678,0.0686,0.0699,0.0615,0.0557,0.0343,0.0205,0.0006,-0.0022,-0.0087,-0.0072,-0.0059,-0.0077,-0.007,-0.0064,-0.0131,-0.0131,-0.0131,-0.0131,0,0.0374,0.0399,0.0436,0.051,0.0565,0.0632,0.0696,0.0728,0.0765,0.077,0.0743,0.0635,0.0514,0.0347,0.0187,0.0047,-0.0046,-0.0098,-0.0097,-0.0083,-0.0066,-0.0082,-0.0074,-0.0135,-0.0134,-0.0134,-0.0134,0,0.0391,0.0422,0.0476,0.0542,0.0617,0.0688,0.0718,0.076,0.0796,0.0796,0.0783,0.0653,0.0581,0.0367,0.0223,0.0079,0.0045,0.0001,-0.0004,-0.0002,0.0057,0.0098,0.0056,0,0,0,0,0,0.0404,0.0442,0.0504,0.0579,0.0657,0.0704,0.0775,0.0799,0.0826,0.0814,0.0803,0.0689,0.0478,0.039,0.0243,0.0196,0.0013,0.0019,-0.0042,-0.0153,-0.0149,-0.0103,0,0,0,0,0,0,0.0412,0.0469,0.0502,0.0603,0.0661,0.0751,0.0799,0.0815,0.081,0.0808,0.07,0.0649,0.0445,0.0561,0.024,0.0197,0.0137,-0.0078,-0.0081,-0.0156,-0.0152,-0.0149,-0.01,0,0,0,0,0]}]]